Volver al catálogo

STARLINK-36559

ActivoComunicacionesSSO
NORAD 67555·PAYLOAD·🇺🇸 United States

Lanzado Jan 22, 2026 desde Vandenberg Space Force Base

Loading…

Próximos Pases (próximas 24 horas)

TLE

ActualizadoSource: CelesTrak SupGP

Época: Sep 14, 2026, 22:36 UTC

1 67555C 26014Z   26257.94215278  .00021764  00000+0  67528-3 0  2578
2 67555  97.2846 143.3976 0001552 101.9810  27.0826 15.33443863    18

Sigue STARLINK-36559 en tiempo real con AllMySat

Download on the App Store